Regional Weather Roundup
Issued by NWS

Home | Current Version | Previous Version | Graphics & Text | Print | Product List | Glossary On
Versions: 1 2 3 4 5 6 7 8 9 10 11 12 13 14 15 16 17 18 19 20 21 22 23 24 25 26 27 28 29 30 31 32 33 34 35 36 37 38 39 40 41 42 43 44 45 46 47 48 49 50
000
ASUS45 KSLC 261410
RWRUT

UTAH REGIONAL WEATHER ROUNDUP
NATIONAL WEATHER SERVICE SALT LAKE CITY UT
700 AM MST MON JAN 26 2015

UTZ001>011-023>025-261500-

NORTHERN UTAH

CITY           SKY/WX    TMP DP  RH WIND       PRES   REMARKS
BRIGHAM CITY   CLEAR     28  26  92 CALM      30.41S
HILL AFB       CLEAR     33  29  86 E10       30.38F WCI  24
LOGAN          FOG       24  23  96 NW6       30.41F VSB 1/2 WCI  17
OGDEN          CLEAR     32  29  88 SE6       30.38F WCI  26
PROVO AIRPORT  NOT AVBL
SALT LAKE CITY CLEAR     32  28  85 SE6       30.39F WCI  26
VERNAL         PTCLDY    19  15  84 W3        30.47R
WENDOVER       PTCLDY    25  21  86 CALM      30.41R
HEBER CITY     PTCLDY    19  19 100 CALM      30.45R
WEST JORDAN    CLEAR     30  28  93 S7        30.40F WCI  23

$$

UTZ012>022-026-027-261500-

SOUTHERN/CENTRAL UTAH

CITY           SKY/WX    TMP DP  RH WIND       PRES   REMARKS
BLANDING       CLEAR     28  24  82 N9        30.46R WCI  20
BRYCE CANYON   PTCLDY    21  18  88 W8        30.40R WCI  11
CEDAR CITY     PTCLDY    25  21  85 SE3       30.34S
DELTA          PTCLDY    28  27  95 NE3       30.39S
MILFORD        PTCLDY    27  24  89 NW6       30.36F WCI  20
MOAB/CYNLANDS  CLEAR     24  21  88 CALM      30.39R
PRICE          PTCLDY    29  21  72 NE6       30.39R WCI  23
ST GEORGE      MOSUNNY   43  27  52 S6        30.26S

$$

REGIONAL REPORTS     COLORADO/ARIZONA

CITY           SKY/WX    TMP DP  RH WIND       PRES   REMARKS
CRAIG, CO      PTCLDY    12   8  84 SE3       30.49R
GRAND JUNCTION CLEAR     28  23  81 SE10      30.42R WCI  19
RIFLE          PTCLDY    22  18  85 CALM      30.46R
MONTROSE       PTCLDY    22  18  85 S6        30.46R WCI  14
CORTEZ         CLEAR     21  17  84 E5        30.40R WCI  15
PAGE, AZ       PTCLDY    33  23  66 CALM      30.34
GRAND CANYON   MOCLDY    30  21  69 VRB3      30.30S
KINGMAN        CLOUDY    41  25  53 NE3       30.19S
FLAGSTAFF      MOCLDY    36  20  52 E8        30.32R WCI  30

$$

REGIONAL REPORTS    NEVADA/IDAHO/WYOMING

CITY           SKY/WX    TMP DP  RH WIND       PRES   REMARKS
LAS VEGAS, NV  PTCLDY    53  31  42 SW10      30.14R
ELY            PTCLDY    21  19  92 SW3       30.37S
ELKO           CLEAR     26  24  92 NE5       30.33F WCI  20
POCATELLO, ID  FOG       28  28 100 NE6       30.43R VSB 1/4 WCI  22
BURLEY         CLOUDY    29  27  92 E13       30.36S FOG     WCI  19
EVANSTON, WY   MOCLDY    31  24  75 CALM      30.42S
ROCK SPRINGS   CLEAR     31  25  78 CALM      30.40S
KEMMERER       PTCLDY    27  23  86 N8        30.42S WCI  18

$$



USA.gov is the U.S. government's official web portal to all federal, state and local government web resources and services.